Location: Berg
(47.2344°N, 9.5296°E)
Time: 13:48:04
(UTC+00:00)

Cosmos 44 - Pass Details

Date: 16 May 2021
Orbit: 571 x 791 km, 65.1° (Epoch: 13 June)

Event Time Altitude Azimuth Distance (km) Brightness Sun altitude
Rises 19:44:56 0° 325° (NW) 3,297 8.6 -8.1°
Reaches altitude 10° 19:47:30 10° 331° (NNW) 2,361 7.4 -8.4°
Maximum altitude 19:52:45 46° 45° (NE) 1,032 4.2 -9.1°
Enters shadow 19:57:32 11° 117° (ESE) 2,181 5.2 -9.7°
